Retour au catalogue

STARLINK-37804

ActifCommunicationsSSO
NORAD 69302·PAYLOAD·🇺🇸 United States

Lancé May 30, 2026 depuis Vandenberg Space Force Base

Loading…

Prochains Passages (prochaines 24 heures)

TLE

FraisSource: CelesTrak SupGP

Époque: Sep 15, 2026, 03:21 UTC

1 69302C 26119G   26258.14006944 -.00042426  00000+0 -13170-2 0  2581
2 69302  97.2824 282.9232 0001013 102.8264 129.1507 15.33460474    13

Suivez STARLINK-37804 en temps réel avec AllMySat

Download on the App Store